Temperature
14 14 14 13 13 13 13 13 13 13 13 13 13 13 14 14 14 14 14 14 15 15 15 16 16 16 16 17 17 17 17 17 17 17 17 18 18 18 18 18 18 18 18
14 14 14 13 13 13 13 13 12 12 12 12 13 13 13 13 13 13 13 14 14 14 15 15 15 16 16 16 16 16 16 17 16 16 16 17 17 18 18 18 18 18 18
14 14 14 13 13 13 13 12 12 12 12 12 12 13 13 13 13 13 13 13 13 14 14 15 15 15 15 16 16 16 16 16 16 16 16 16 16 17 18 18 18 18 18
14 14 14 13 13 13 12 12 12 12 12 12 12 12 12 12 12 12 13 13 13 13 14 14 15 15 15 15 16 16 16 16 16 16 16 16 16 17 17 17 18 18 18
14 14 14 13 13 13 12 12 12 12 12 12 12 12 12 12 12 12 12 13 13 13 13 14 14 14 15 15 15 15 15 16 16 16 16 15 16 16 16 17 17 17 18
14 14 14 14 13 13 13 12 12 12 12 11 11 11 12 12 12 12 12 12 12 13 13 13 14 14 14 15 15 15 15 15 15 15 16 16 16 16 16 16 17 17 18
15 14 14 14 13 13 13 12 12 12 12 11 11 11 11 11 11 11 12 12 12 12 13 13 13 14 14 14 14 15 15 15 15 15 15 15 16 16 16 16 16 16 17
15 15 14 14 14 13 13 12 12 12 11 11 11 11 11 11 11 11 11 11 12 12 12 13 13 13 13 14 14 14 15 15 15 15 15 15 15 15 15 15 15 16 16
15 15 15 14 14 13 13 12 12 12 11 11 11 11 11 11 11 11 11 11 11 12 12 12 13 13 13 13 14 14 14 14 15 15 15 15 15 15 15 15 15 15 15
15 15 15 14 14 13 13 12 12 12 11 11 11 11 11 11 11 11 11 11 11 12 12 12 12 13 13 13 13 14 14 14 14 14 14 14 14 15 15 15 15 15 15
15 15 15 15 14 14 13 13 12 12 11 11 11 11 11 11 11 11 11 11 11 11 12 12 12 12 12 13 13 13 13 14 14 14 14 14 14 14 14 14 14 14 14
16 15 15 15 14 14 13 13 12 12 12 11 11 11 11 10 11 10 10 11 11 11 11 11 12 12 12 12 12 13 13 13 13 13 14 14 14 14 14 14 14 14 14
16 16 15 15 15 14 14 13 13 12 12 11 11 11 11 10 10 10 10 10 10 10 11 11 11 11 11 12 12 12 12 13 13 13 13 13 14 14 14 14 14 14 14
16 16 15 15 15 14 14 13 13 12 12 12 11 11 11 10 10 10 10 10 10 10 10 10 10 11 11 11 11 12 12 12 12 13 13 13 13 13 13 13 14 14 13
16 16 16 15 15 14 14 14 13 13 12 12 11 11 10 10 10 10 10 10 10 10 10 10 10 10 11 11 11 11 12 12 12 12 12 13 13 13 13 13 13 13 13
16 16 16 15 15 15 14 14 13 13 12 12 11 11 10 10 10 10 10 9 9 9 10 10 10 10 10 10 11 11 11 11 12 12 12 12 12 13 13 13 13 13 13
17 16 16 16 15 15 14 14 13 13 12 12 11 11 10 10 10 10 10 9 9 9 9 9 10 10 10 10 10 10 11 11 11 12 12 12 12 12 13 13 13 13 13
17 16 16 16 15 15 15 14 14 13 12 12 11 11 10 10 10 10 10 10 9 9 9 9 9 9 9 10 10 10 10 11 11 11 11 12 12 12 12 13 13 13 13
17 17 16 16 16 15 15 14 14 13 13 12 11 11 11 10 10 10 10 10 10 9 9 9 9 9 9 9 10 10 10 10 11 11 11 11 12 12 12 12 13 13 13
17 17 16 16 16 15 15 15 14 13 13 12 12 11 11 11 10 10 10 10 10 10 9 9 9 9 9 9 9 10 10 10 10 11 11 11 11 12 12 12 12 13 13
17 17 16 16 16 16 15 15 14 14 13 13 12 12 11 11 11 10 10 10 10 10 10 9 9 9 9 9 9 9 10 10 10 11 11 11 11 12 12 12 12 13 13
18 17 17 17 16 16 16 15 15 14 14 13 13 12 11 11 11 11 10 10 10 10 10 10 10 9 9 9 9 10 10 10 10 11 11 11 11 11 12 12 12 12 13
18 18 17 17 16 16 16 16 15 15 14 14 13 13 12 12 11 11 11 10 10 10 10 10 10 10 10 9 9 10 10 10 10 10 11 11 11 11 12 12 12 12 12
19 18 17 17 17 17 16 16 16 15 15 14 14 13 12 12 12 11 11 11 11 10 10 10 10 10 10 9 9 10 10 10 10 10 11 11 11 11 12 12 12 12 12
19 18 18 18 17 17 17 16 16 15 15 15 14 14 13 13 12 12 11 11 11 11 10 10 10 10 10 10 10 10 10 10 10 10 11 11 11 11 12 12 12 12 12
19 18 18 18 18 17 17 17 16 16 16 15 15 14 14 13 13 12 12 12 11 11 11 10 10 10 10 10 10 10 10 10 10 10 11 11 11 11 12 12 12 12 12
Wind_Speed
6 6 6 6 6 7 7 7 8 8 7 5 5 5 5 5 5 4 6 7 7 7 5 5 5 5 6 7 7 5 6 5 4 2 1 1 2 3 4 5 5 7 10
6 7 7 6 6 7 7 7 8 8 7 5 4 4 5 4 4 4 6 8 7 7 5 5 5 5 5 6 7 6 5 5 5 4 2 1 1 2 4 4 6 7 7
7 7 7 7 7 7 7 7 8 8 7 7 5 5 4 4 4 5 5 6 8 7 6 6 5 5 6 6 7 8 8 6 6 5 4 4 5 2 2 5 5 6 6
7 7 8 8 8 7 7 7 7 7 7 7 6 6 5 5 5 5 6 8 7 6 6 5 6 6 6 7 7 7 7 7 6 5 4 3 3 4 3 1 3 5 7
7 8 8 7 7 6 6 6 7 7 7 7 6 6 6 5 6 6 7 7 6 6 5 5 4 5 5 7 7 6 7 7 7 6 5 4 2 2 3 3 3 2 4
7 8 7 6 6 6 5 6 6 6 7 7 6 6 7 8 8 9 8 7 6 5 6 5 4 4 4 6 7 7 8 8 7 6 6 6 5 5 4 3 3 3 3
7 8 8 8 7 7 6 6 6 6 7 7 7 6 7 7 7 8 7 7 6 5 7 6 5 4 4 4 5 6 7 8 8 9 7 7 6 4 5 4 3 3 2
7 8 8 7 6 7 6 5 6 6 6 7 7 6 6 5 5 6 6 7 6 6 7 7 6 5 4 4 3 4 6 6 8 9 9 7 7 6 6 6 5 4 3
8 8 7 6 6 6 5 5 5 6 6 6 6 7 7 6 6 7 6 6 6 6 8 7 7 6 5 4 3 2 3 4 6 7 8 7 6 7 7 6 6 7 6
7 8 7 6 5 4 4 4 4 4 5 5 5 5 6 6 6 6 8 8 8 8 8 7 7 7 6 5 4 2 2 2 3 4 6 7 6 6 7 7 7 6 6
8 7 6 5 5 4 4 3 4 4 5 5 5 5 6 6 6 6 7 7 7 8 9 8 7 7 7 6 5 4 3 1 1 2 4 6 6 6 7 7 7 7 6
7 6 6 5 5 5 4 4 4 4 4 4 4 5 5 6 6 7 7 7 8 8 8 8 8 7 7 7 6 5 4 3 2 2 2 4 5 6 6 7 8 7 6
7 5 5 5 5 5 5 4 4 4 3 3 4 5 5 6 6 7 7 7 7 8 8 8 8 7 7 7 6 5 4 4 3 2 2 3 3 5 5 6 7 7 7
7 6 6 6 6 5 5 4 4 3 2 2 3 4 5 6 6 6 7 7 7 7 8 8 7 7 7 6 6 5 5 4 3 2 1 1 2 4 6 6 7 7 7
8 7 6 6 5 5 4 4 3 2 1 1 2 4 5 5 5 6 7 6 7 7 7 7 8 8 6 6 6 5 5 4 4 3 2 1 1 1 3 5 6 7 7
9 8 7 6 6 5 5 4 4 3 1 1 3 3 4 5 6 6 6 6 7 7 7 7 7 8 7 11 10 6 4 4 4 4 3 3 3 3 1 4 8 9 9
9 9 8 7 6 6 5 5 4 2 2 2 3 3 4 5 5 6 6 6 6 6 6 7 7 7 9 12 12 9 5 4 4 4 3 3 3 3 2 1 5 8 9
9 9 7 6 5 4 3 3 2 2 2 3 3 3 4 5 5 5 6 6 5 5 5 6 6 6 8 13 12 10 5 4 4 4 3 2 3 2 2 3 4 4 4
9 8 7 6 4 5 4 3 2 3 3 4 4 4 4 4 5 5 6 4 4 5 5 4 5 6 8 12 12 9 4 4 4 4 4 3 2 2 2 4 5 5 4
7 7 6 5 5 5 4 4 4 4 5 6 5 4 4 4 5 5 4 3 3 4 5 5 5 5 6 10 12 10 3 4 4 4 4 5 3 1 2 3 5 6 5
8 7 7 6 6 5 6 6 6 7 7 5 4 4 4 4 5 4 3 3 4 5 5 5 5 5 6 9 11 10 4 3 3 3 4 3 4 3 3 4 4 6 7
7 8 7 7 6 6 7 7 8 8 6 5 5 5 5 4 3 3 3 3 3 4 5 5 6 5 6 7 9 10 8 5 2 3 3 3 3 4 5 5 7 10 9
8 7 8 8 6 7 8 9 9 6 6 6 6 6 5 4 3 3 3 3 3 3 4 4 4 5 5 6 10 10 9 8 3 3 4 4 4 5 5 7 9 7 6
8 7 7 8 8 8 9 10 8 6 6 7 7 6 5 5 4 3 3 3 3 3 3 3 4 4 5 5 6 6 6 6 5 3 4 5 7 7 7 7 6 5 5
6 6 8 10 11 9 9 9 8 7 8 8 7 6 6 6 5 4 4 5 5 5 4 3 2 3 4 5 8 6 4 4 3 2 2 3 3 4 4 5 5 5 5
5 6 9 10 11 9 9 9 8 9 8 8 8 6 6 5 5 5 5 7 8 8 9 8 6 4 6 8 8 7 6 5 3 2 2 2 3 3 4 4 4 4 5
Wind_Direction
302 313 316 318 326 334 337 336 339 339 344 342 337 328 322 316 314 308 310 308 301 293 273 261 248 230 226 222 213 205 206 206 176 166 280 310 232 214 214 203 193 199 203
313 317 319 321 325 327 330 333 336 335 340 336 320 301 299 300 297 303 314 312 309 301 287 259 248 236 232 227 215 202 198 200 179 165 146 227 289 255 217 198 201 204 195
291 302 312 312 319 324 326 329 328 331 335 337 333 330 325 318 327 328 323 315 312 303 289 270 255 242 230 229 221 209 201 205 194 183 165 171 206 216 225 211 203 195 195
287 295 303 310 315 313 320 323 326 331 336 343 350 351 345 334 320 317 309 311 309 305 298 280 260 247 237 234 228 218 209 201 199 196 198 179 156 163 196 232 203 199 202
282 291 295 299 306 313 323 326 333 335 338 344 347 346 339 325 319 320 322 325 321 316 314 298 276 256 243 237 231 224 215 208 200 188 181 179 175 166 165 188 195 204 213
285 293 298 308 312 318 325 334 339 333 337 343 346 347 339 334 337 339 339 335 329 323 327 317 296 278 261 246 235 225 219 216 208 199 187 177 173 184 174 171 178 195 207
281 292 303 311 313 317 322 329 336 331 335 341 342 342 338 336 336 333 334 336 334 330 331 330 315 295 277 263 245 226 222 216 212 208 205 198 191 168 164 160 158 171 189
279 284 289 295 299 303 313 324 328 325 331 338 337 339 343 339 333 333 336 337 333 325 330 335 338 330 312 290 262 239 227 218 216 214 208 205 201 190 180 170 161 167 186
280 282 288 292 292 295 303 310 314 320 328 334 336 341 346 346 342 340 344 341 338 338 343 345 349 348 345 333 305 262 242 223 217 215 211 209 202 197 198 187 179 177 190
280 285 286 285 289 289 296 311 311 311 318 332 338 345 343 345 344 347 351 348 344 346 346 352 353 355 355 353 349 326 288 244 226 212 207 207 201 200 200 199 196 193 185
273 278 282 285 288 293 301 309 317 322 327 334 338 344 344 345 349 352 350 346 346 349 352 351 353 356 356 357 358 354 343 309 267 236 216 212 202 198 199 196 197 198 187
267 271 278 289 293 294 299 300 308 317 320 327 339 345 345 348 352 348 344 345 347 348 349 352 355 357 356 355 358 357 349 336 317 280 235 224 212 200 195 197 196 194 185
272 279 286 289 288 285 285 286 294 301 312 330 343 349 350 348 344 341 340 344 346 348 352 355 355 350 346 346 347 348 347 341 322 304 266 239 214 208 201 196 194 189 185
264 270 277 279 282 278 273 269 280 288 298 330 342 343 339 336 333 334 340 345 346 349 349 347 345 342 339 339 342 348 348 345 339 326 301 270 231 216 201 195 188 176 171
260 260 261 269 277 279 272 258 260 272 280 312 325 326 327 332 336 340 340 342 347 350 344 346 347 344 340 342 348 348 346 346 350 355 0 355 20 205 193 188 179 172 168
250 255 258 261 264 264 262 255 251 252 231 267 296 313 329 337 339 337 339 343 344 343 347 350 346 347 348 347 357 2 349 346 354 356 359 6 30 34 55 189 184 176 170
241 244 246 247 252 252 247 243 244 232 217 255 288 309 322 329 330 335 342 341 338 341 344 346 348 345 340 351 2 8 7 354 354 355 355 8 19 24 19 127 166 173 174
233 236 236 241 246 242 236 229 216 209 222 253 280 295 309 315 323 334 339 333 329 336 335 337 342 341 345 356 0 6 9 2 1 358 352 356 355 2 43 85 107 117 137
221 224 222 221 230 232 221 192 205 215 234 251 264 275 286 303 318 326 328 327 331 335 331 329 342 346 341 353 359 5 357 4 359 352 352 354 354 357 96 112 118 109 97
216 217 212 208 223 226 191 187 212 225 240 244 250 263 271 283 297 307 313 318 323 322 327 334 342 344 340 348 356 2 356 359 354 351 353 352 351 11 120 125 130 127 120
212 206 199 209 222 205 180 202 219 233 238 237 244 258 265 269 276 295 308 318 327 332 339 337 336 342 344 348 355 2 3 350 346 347 346 345 3 42 95 114 126 131 126
211 198 201 222 224 195 189 214 231 237 231 226 239 254 262 267 274 282 304 322 333 336 340 343 339 339 341 347 351 2 8 4 355 341 340 345 24 64 91 102 118 120 118
217 204 205 224 228 206 198 218 236 226 215 222 238 250 261 260 258 259 282 306 321 326 328 338 335 332 336 345 358 1 2 6 7 337 348 24 64 77 88 100 109 114 117
223 209 205 222 235 222 214 225 233 212 207 224 238 244 252 262 258 244 237 245 271 288 305 317 321 325 331 340 348 347 349 359 8 5 18 49 67 78 87 87 82 87 104
229 210 212 225 237 230 226 230 223 205 214 228 237 241 240 247 253 248 234 229 232 217 228 248 255 289 316 314 328 333 333 336 337 5 29 47 69 76 76 77 78 85 99
242 230 229 234 242 237 237 236 215 201 209 226 235 234 234 237 237 247 268 243 234 244 237 230 222 237 255 293 321 336 344 349 10 63 63 65 81 92 98 100 91 84 102
Height
1554 1552 1549 1546 1543 1540 1536 1533 1529 1526 1523 1520 1517 1515 1513 1511 1510 1509 1508 1507 1507 1507 1507 1508 1509 1511 1512 1514 1516 1518 1520 1521 1524 1527 1529 1531 1534 1536 1539 1542 1545 1547 1549
1553 1551 1548 1545 1542 1539 1536 1532 1529 1526 1522 1519 1516 1513 1511 1509 1507 1506 1504 1503 1503 1503 1503 1503 1504 1505 1507 1509 1510 1512 1514 1516 1519 1522 1524 1526 1530 1531 1534 1537 1540 1543 1546
1552 1550 1547 1544 1542 1538 1535 1532 1529 1525 1522 1519 1516 1513 1510 1507 1505 1503 1501 1500 1499 1499 1498 1499 1499 1500 1502 1503 1505 1507 1509 1511 1513 1516 1519 1521 1523 1526 1529 1532 1535 1539 1542
1551 1549 1546 1544 1541 1538 1535 1532 1528 1525 1522 1518 1515 1512 1509 1506 1503 1501 1499 1497 1496 1495 1494 1494 1495 1495 1496 1498 1500 1502 1503 1506 1508 1510 1513 1516 1518 1521 1523 1527 1530 1533 1537
1550 1548 1546 1543 1541 1538 1535 1532 1528 1525 1522 1518 1515 1512 1509 1506 1503 1500 1497 1495 1493 1492 1491 1490 1490 1491 1492 1493 1495 1496 1498 1500 1502 1504 1506 1510 1513 1516 1519 1521 1524 1528 1531
1548 1547 1545 1543 1540 1537 1534 1531 1528 1525 1522 1518 1515 1512 1509 1506 1503 1499 1496 1494 1491 1490 1488 1487 1487 1487 1487 1488 1490 1491 1493 1495 1497 1499 1501 1503 1507 1510 1513 1516 1518 1522 1526
1547 1546 1544 1542 1539 1537 1534 1531 1528 1525 1521 1518 1515 1512 1509 1506 1502 1499 1496 1493 1490 1488 1486 1485 1484 1483 1483 1484 1485 1486 1487 1489 1491 1493 1495 1498 1501 1504 1508 1512 1514 1517 1520
1545 1544 1543 1541 1538 1536 1533 1530 1528 1524 1521 1518 1515 1512 1509 1506 1503 1499 1496 1493 1490 1487 1485 1483 1482 1481 1480 1481 1481 1482 1483 1484 1486 1487 1489 1491 1494 1498 1501 1505 1510 1513 1515
1544 1543 1541 1539 1537 1535 1533 1530 1527 1524 1522 1519 1515 1512 1509 1506 1503 1499 1496 1493 1489 1487 1484 1482 1481 1479 1478 1478 1478 1478 1479 1480 1481 1482 1484 1486 1489 1492 1495 1499 1503 1508 1509
1542 1541 1540 1538 1536 1534 1532 1530 1527 1524 1522 1519 1515 1512 1509 1506 1503 1500 1496 1493 1490 1487 1484 1482 1480 1478 1477 1476 1476 1476 1476 1476 1477 1478 1479 1481 1483 1486 1489 1492 1496 1500 1504
1540 1539 1538 1537 1535 1533 1531 1529 1527 1524 1521 1518 1515 1512 1509 1506 1503 1500 1496 1493 1490 1487 1484 1481 1479 1477 1476 1475 1474 1474 1474 1474 1474 1474 1476 1477 1479 1481 1483 1486 1489 1493 1497
1538 1537 1536 1535 1534 1532 1530 1528 1526 1524 1521 1518 1515 1512 1509 1506 1503 1499 1496 1493 1490 1487 1484 1481 1479 1477 1476 1474 1473 1473 1472 1472 1472 1472 1472 1473 1475 1476 1479 1481 1483 1486 1490
1536 1535 1535 1533 1532 1530 1529 1527 1525 1523 1521 1518 1515 1512 1509 1506 1502 1499 1496 1494 1490 1487 1484 1482 1479 1477 1475 1474 1473 1471 1471 1470 1470 1469 1469 1470 1472 1473 1475 1476 1479 1482 1485
1533 1533 1532 1532 1530 1529 1527 1526 1524 1522 1520 1517 1515 1512 1509 1505 1502 1500 1497 1494 1491 1488 1485 1482 1480 1477 1475 1474 1472 1471 1470 1469 1468 1468 1468 1468 1469 1469 1471 1472 1475 1478 1481
1530 1531 1530 1530 1529 1527 1526 1524 1523 1521 1519 1517 1514 1511 1509 1506 1503 1500 1497 1494 1491 1489 1486 1483 1480 1478 1476 1474 1472 1470 1469 1468 1467 1467 1466 1467 1467 1467 1468 1469 1471 1474 1477
1528 1528 1528 1528 1527 1526 1525 1523 1522 1520 1518 1516 1513 1511 1508 1506 1503 1500 1497 1494 1492 1489 1486 1483 1481 1478 1476 1474 1472 1470 1469 1468 1467 1466 1466 1466 1466 1465 1466 1468 1470 1472 1475
1525 1526 1526 1526 1525 1525 1523 1522 1520 1519 1517 1515 1513 1511 1508 1506 1503 1500 1497 1494 1492 1489 1486 1484 1481 1478 1476 1474 1472 1470 1469 1468 1467 1466 1466 1465 1465 1465 1466 1467 1468 1471 1474
1522 1523 1524 1524 1524 1523 1522 1521 1519 1517 1516 1514 1512 1510 1508 1505 1503 1500 1497 1494 1492 1489 1486 1483 1481 1478 1476 1474 1472 1470 1469 1468 1467 1466 1466 1465 1465 1465 1466 1467 1468 1470 1472
1520 1521 1522 1522 1522 1521 1521 1519 1518 1516 1515 1513 1511 1509 1507 1505 1503 1500 1498 1495 1492 1489 1486 1483 1481 1479 1476 1474 1472 1471 1469 1468 1467 1466 1466 1465 1465 1465 1466 1467 1469 1470 1472
1517 1518 1519 1520 1520 1520 1519 1518 1517 1515 1514 1512 1511 1509 1507 1505 1503 1500 1498 1495 1492 1489 1486 1483 1481 1478 1476 1474 1472 1471 1470 1468 1467 1466 1466 1466 1466 1466 1467 1468 1469 1471 1473
1515 1516 1517 1517 1518 1518 1517 1516 1515 1514 1513 1511 1510 1508 1507 1505 1503 1500 1498 1495 1492 1489 1486 1483 1481 1479 1476 1475 1473 1471 1470 1469 1468 1467 1466 1466 1466 1467 1467 1468 1470 1472 1475
1513 1514 1514 1515 1515 1515 1515 1514 1513 1513 1511 1510 1509 1507 1506 1504 1502 1500 1498 1495 1492 1489 1486 1484 1481 1479 1477 1475 1474 1472 1471 1470 1469 1468 1467 1467 1467 1468 1468 1470 1472 1474 1476
1510 1511 1512 1512 1513 1513 1512 1512 1512 1511 1509 1508 1507 1506 1504 1503 1501 1499 1497 1495 1492 1490 1487 1484 1481 1479 1477 1476 1474 1473 1472 1471 1470 1469 1469 1468 1469 1469 1470 1471 1473 1476 1478
1508 1508 1509 1509 1509 1510 1509 1509 1509 1508 1507 1506 1505 1504 1502 1501 1500 1498 1496 1494 1492 1490 1487 1485 1482 1480 1478 1476 1475 1474 1473 1472 1471 1471 1470 1470 1471 1472 1472 1474 1475 1478 1480
1505 1506 1506 1506 1506 1507 1506 1506 1506 1505 1504 1503 1502 1501 1500 1499 1497 1496 1495 1493 1491 1489 1487 1485 1483 1481 1479 1477 1476 1475 1474 1473 1473 1473 1472 1472 1473 1474 1475 1476 1478 1480 1482
1502 1502 1502 1502 1502 1503 1503 1503 1503 1502 1501 1500 1499 1498 1497 1496 1495 1494 1492 1491 1490 1488 1486 1485 1483 1481 1480 1478 1477 1476 1475 1475 1474 1474 1474 1474 1475 1476 1477 1478 1480 1482 1484